Madison, SD

11:38 AM CST on November 23, 2017 (GMT -0600)
Madison Municipal

Weather History for KMDS - December, 2012

Change the Weather History Date:

Saturday, December 8, 2012

  Actual Average Record
Temperature  
Mean Temperature 24 °F -  
Max Temperature 32 °F 27 °F 41 °F (2015)
Min Temperature 15 °F 10 °F -2 °F (2013)
Degree Days  
Heating Degree Days 42    
Moisture  
Dew Point 25 °F    
Average Humidity 100    
Maximum Humidity 100    
Minimum Humidity 100    
Precipitation  
Precipitation 0.39 in - - ()
Sea Level Pressure  
Sea Level Pressure 29.87 in    
Wind  
Wind Speed 9 mph (SSE)    
Max Wind Speed 26 mph    
Max Gust Speed 36 mph    
Visibility 5 miles    
Events Fog , Rain , Snow    
Averages and records for this station are not official NWS values.
T = Trace of Precipitation, MM = Missing Value Source: NWS Daily Summary

Daily Weather History Graph

Daily Weather History Graph

Search for Another Location

Airport or City:

Trip Planner

Search our weather history database for the weather conditions in past years. The results will help you decide how hot, cold, wet, or windy it might be!

Date:

Astronomy

Dec. 08, 2012 Rise Set
Actual Time 7:50 AM CST 4:50 PM CST
Civil Twilight 7:17 AM CST 5:22 PM CST
Nautical Twilight 6:41 AM CST 5:59 PM CST
Astronomical Twilight 6:06 AM CST 6:34 PM CST
Moon 2:07 AM CST (12/8) 1:28 PM CST (12/8)
Length of Visible Light 10h 04m
Length of Day
8h 59m
Waning Crescent, 28% of the Moon is Illuminated
Dec 8
Waning Crescent
Dec 13
New
Dec 19
First Quarter
Dec 28
Full
Jan 4
Last Quarter

Hourly Weather History & Observations

Time (CST) Temp. Windchill Dew Point Humidity Pressure Visibility Wind Dir Wind Speed Gust Speed Precip Events Conditions
12:00 AM 17.6 °F - 17.6 °F 100% 29.98 in 0.2 mi Calm Calm - N/A Fog Light Freezing Fog
12:20 AM 19.4 °F - 19.4 °F 100% 29.98 in 0.8 mi Calm Calm - N/A   Overcast
12:40 AM 19.4 °F - 19.4 °F 100% 29.98 in 0.5 mi Calm Calm - N/A Fog Light Freezing Fog
1:00 AM 19.4 °F 14.3 °F 19.4 °F 100% 29.97 in 0.2 mi ESE 3.5 mph - N/A Fog Light Freezing Fog
1:20 AM 15.8 °F 10.2 °F 15.8 °F 100% 29.98 in 0.2 mi East 3.5 mph - N/A Fog Light Freezing Fog
1:40 AM 15.8 °F 10.2 °F 15.8 °F 100% 29.97 in 0.2 mi East 3.5 mph - N/A Fog Light Freezing Fog
2:00 AM 15.8 °F 8.6 °F 15.8 °F 100% 29.98 in 0.2 mi WSW 4.6 mph - N/A Fog Light Freezing Fog
2:40 AM 17.6 °F - 17.6 °F 100% 29.98 in 0.2 mi Calm Calm - N/A Fog Light Freezing Fog
3:00 AM 19.4 °F - 19.4 °F 100% 29.98 in 0.5 mi Calm Calm - N/A Fog Light Freezing Fog
3:20 AM 19.4 °F 14.3 °F 19.4 °F 100% 29.97 in 1.2 mi ENE 3.5 mph - N/A   Overcast
3:40 AM 19.4 °F - 19.4 °F 100% 29.97 in 5.0 mi Calm Calm - N/A   Overcast
4:00 AM 21.2 °F - 21.2 °F 100% 29.96 in 8.0 mi Calm Calm - N/A   Overcast
4:20 AM 23.0 °F 17.0 °F 23.0 °F 100% 29.95 in 10.0 mi East 4.6 mph - N/A   Overcast
5:00 AM 23.0 °F - 23.0 °F 100% 29.94 in 10.0 mi Calm Calm - N/A   Overcast
5:20 AM 23.0 °F 14.7 °F 23.0 °F 100% 29.94 in 1.8 mi SE 6.9 mph - N/A   Overcast
5:40 AM 23.0 °F 12.4 °F 23.0 °F 100% 29.94 in 0.5 mi South 10.4 mph - N/A Fog Light Freezing Fog
6:00 AM 23.0 °F 13.1 °F 23.0 °F 100% 29.94 in 0.2 mi South 9.2 mph - N/A Fog Light Freezing Fog
6:20 AM 23.0 °F 13.9 °F 23.0 °F 100% 29.94 in 0.2 mi SSE 8.1 mph - N/A Fog Light Freezing Fog
6:40 AM 23.0 °F 12.4 °F 23.0 °F 100% 29.94 in 0.2 mi SE 10.4 mph - N/A Fog Light Freezing Fog
7:00 AM 23.0 °F 12.4 °F 23.0 °F 100% 29.94 in 0.2 mi SSE 10.4 mph - N/A Fog Light Freezing Fog
7:20 AM 23.0 °F 13.1 °F 23.0 °F 100% 29.95 in 0.5 mi South 9.2 mph - N/A Fog Light Freezing Fog
7:40 AM 24.8 °F 14.6 °F 24.8 °F 100% 29.94 in 0.8 mi South 10.4 mph - N/A   Overcast
8:00 AM 24.8 °F 13.4 °F 24.8 °F 100% 29.95 in 3.0 mi South 12.7 mph - N/A   Overcast
8:20 AM 24.8 °F 12.9 °F 24.8 °F 100% 29.95 in 9.0 mi South 13.8 mph - N/A   Overcast
8:40 AM 24.8 °F 14.6 °F 24.8 °F 100% 29.94 in 10.0 mi South 10.4 mph - N/A   Overcast
9:00 AM 24.8 °F 14.6 °F 24.8 °F 100% 29.94 in 9.0 mi South 10.4 mph - N/A   Overcast
9:20 AM 24.8 °F 14.6 °F 24.8 °F 100% 29.94 in 10.0 mi South 10.4 mph - N/A   Overcast
9:40 AM 24.8 °F 14.0 °F 24.8 °F 100% 29.93 in 10.0 mi South 11.5 mph - N/A   Overcast
10:00 AM 24.8 °F 13.4 °F 24.8 °F 100% 29.92 in 9.0 mi SSE 12.7 mph - N/A   Overcast
10:20 AM 24.8 °F 12.9 °F 24.8 °F 100% 29.92 in 9.0 mi SSE 13.8 mph 20.7 mph N/A   Overcast
10:40 AM 26.6 °F 15.2 °F 26.6 °F 100% 29.91 in 10.0 mi SSE 13.8 mph 19.6 mph N/A   Overcast
11:00 AM 26.6 °F 15.2 °F 26.6 °F 100% 29.90 in 10.0 mi SSE 13.8 mph 21.9 mph N/A   Overcast
11:20 AM 26.6 °F 13.8 °F 26.6 °F 100% 29.89 in 10.0 mi SE 17.3 mph 25.3 mph N/A   Mostly Cloudy
11:40 AM 26.6 °F 13.4 °F 26.6 °F 100% 29.88 in 10.0 mi SSE 18.4 mph 26.5 mph N/A   Mostly Cloudy
12:00 PM 26.6 °F 13.1 °F 26.6 °F 100% 29.88 in 10.0 mi SSE 19.6 mph 25.3 mph N/A   Mostly Cloudy
12:20 PM 26.6 °F 13.4 °F 26.6 °F 100% 29.87 in 10.0 mi SSE 18.4 mph - N/A   Scattered Clouds
12:40 PM 26.6 °F 15.2 °F 26.6 °F 100% 29.87 in 10.0 mi South 13.8 mph - N/A   Mostly Cloudy
1:00 PM 26.6 °F 14.7 °F 26.6 °F 100% 29.87 in 10.0 mi SSE 15.0 mph - N/A   Overcast
1:20 PM 26.6 °F 15.7 °F 26.6 °F 100% 29.86 in 10.0 mi South 12.7 mph - N/A   Overcast
1:40 PM 26.6 °F 15.2 °F 26.6 °F 100% 29.86 in 10.0 mi South 13.8 mph - N/A   Overcast
2:00 PM 26.6 °F 15.2 °F 26.6 °F 100% 29.85 in 10.0 mi South 13.8 mph - N/A   Overcast
2:20 PM 26.6 °F 15.7 °F 26.6 °F 100% 29.84 in 10.0 mi SSE 12.7 mph - N/A   Overcast
2:40 PM 26.6 °F 13.8 °F 26.6 °F 100% 29.83 in 10.0 mi South 17.3 mph 24.2 mph N/A   Overcast
3:00 PM 26.6 °F 14.7 °F 26.6 °F 100% 29.82 in 10.0 mi SSE 15.0 mph 21.9 mph N/A   Overcast
3:20 PM 26.6 °F 14.3 °F 26.6 °F 100% 29.82 in 10.0 mi SSE 16.1 mph 21.9 mph N/A   Overcast
3:40 PM 26.6 °F 13.4 °F 26.6 °F 100% 29.82 in 8.0 mi SSE 18.4 mph 25.3 mph N/A   Mostly Cloudy
4:00 PM 26.6 °F 13.8 °F 26.6 °F 100% 29.80 in 1.5 mi SE 17.3 mph 24.2 mph N/A Snow Light Snow
4:20 PM 24.8 °F 11.9 °F 24.8 °F 100% 29.81 in 1.2 mi SSE 16.1 mph 24.2 mph 0.01 in Snow Light Snow
4:40 PM 24.8 °F 11.1 °F 24.8 °F 100% 29.80 in 0.5 mi SSE 18.4 mph 24.2 mph 0.03 in Snow Snow
5:00 PM 26.6 °F 13.4 °F 26.6 °F 100% 29.79 in 1.2 mi SE 18.4 mph 24.2 mph 0.04 in Snow Light Snow
5:20 PM 26.6 °F 12.7 °F 26.6 °F 100% 29.79 in 3.0 mi SE 20.7 mph 26.5 mph N/A Snow Light Snow
5:40 PM 26.6 °F 12.7 °F 26.6 °F 100% 29.79 in 10.0 mi SSE 20.7 mph 26.5 mph N/A   Overcast
6:00 PM 26.6 °F 13.1 °F 26.6 °F 100% 29.78 in 10.0 mi SE 19.6 mph 26.5 mph N/A   Overcast
6:20 PM 26.6 °F 12.4 °F 26.6 °F 100% 29.78 in 3.0 mi SE 21.9 mph 27.6 mph N/A   Overcast
6:40 PM 26.6 °F 12.0 °F 26.6 °F 100% 29.77 in 3.0 mi SE 23.0 mph 31.1 mph N/A Rain Light Freezing Rain
7:00 PM 26.6 °F 12.4 °F 26.6 °F 100% 29.76 in 0.8 mi SSE 21.9 mph 28.8 mph N/A Rain Light Freezing Rain
7:20 PM 26.6 °F 12.7 °F 26.6 °F 100% 29.76 in 0.8 mi SSE 20.7 mph 27.6 mph 0.03 in Snow Light Snow
7:40 PM 28.4 °F 15.4 °F 28.4 °F 100% 29.77 in 6.0 mi SSE 19.6 mph 25.3 mph 0.03 in Rain Light Freezing Rain
8:00 PM 28.4 °F 16.6 °F 28.4 °F 100% 29.77 in 1.5 mi SSE 16.1 mph 23.0 mph 0.03 in   Overcast
8:20 PM 28.4 °F 15.4 °F 28.4 °F 100% 29.77 in 0.5 mi South 19.6 mph 25.3 mph 0.04 in Snow Snow
8:40 PM 28.4 °F 14.7 °F 28.4 °F 100% 29.76 in 0.5 mi SSE 21.9 mph 26.5 mph 0.12 in Snow Snow
9:00 PM 28.4 °F 13.5 °F 28.4 °F 100% 29.76 in 2.0 mi South 26.5 mph 35.7 mph 0.17 in Snow Light Snow
9:20 PM 30.2 °F 17.1 °F 30.2 °F 100% 29.76 in 5.0 mi South 21.9 mph 27.6 mph N/A   Overcast
9:40 PM 30.2 °F 17.1 °F 30.2 °F 100% 29.76 in 5.0 mi South 21.9 mph 32.2 mph N/A   Overcast
10:00 PM 30.2 °F 16.8 °F 30.2 °F 100% 29.77 in 5.0 mi South 23.0 mph 32.2 mph N/A   Overcast
10:20 PM 30.2 °F 17.4 °F 30.2 °F 100% 29.77 in 10.0 mi South 20.7 mph 26.5 mph N/A   Overcast
10:40 PM 32.0 °F 19.5 °F 32.0 °F 100% 29.76 in 10.0 mi South 21.9 mph 27.6 mph N/A   Mostly Cloudy
11:00 PM 32.0 °F 20.8 °F 32.0 °F 100% 29.77 in 10.0 mi South 17.3 mph 25.3 mph N/A   Overcast
11:20 PM 32.0 °F 21.6 °F 32.0 °F 100% 29.76 in 10.0 mi South 15.0 mph 26.5 mph N/A   Overcast
11:40 PM 32.0 °F 22.1 °F 32.0 °F 100% 29.78 in 10.0 mi South 13.8 mph 23.0 mph N/A   Overcast